Location: Unspecified
(0.0000°N, 0.0000°E)
Time: 22:42:02
(UTC+00:00)

deb Explorer IX - Pass Details

Date: 15 December 2018
Orbit: 538 x 1115 km, 38.8° (Epoch: 18 January)

Event Time Altitude Azimuth Distance (km) Brightness Sun altitude
Exits shadow 03:18:53 39° 166° (SSE) 1,375 ? -35.3°
Drops below altitude 10° 03:23:20 10° 143° (SE) 2,775 ? -34.4°
Sets 03:26:16 0° 139° (SE) 3,799 ? -33.7°
